Tracking 31027 objects as of 19-Jul-2025
HD Live streaming from Space Station
objects crossing your sky now

STARLINK-2752

Track STARLINK-2752 now!
10-day predictions
STARLINK-2752 is classified as:


NORAD ID: 48692
Int'l Code: 2021-044BG
Perigee: 553.5 km
Apogee: 555.2 km
Inclination: 53.1 °
Period: 95.6 minutes
Semi major axis: 6925 km
RCS: Unknown
Launch date: May 26, 2021
Source: United States (US)
Launch site: AIR FORCE EASTERN TEST RANGE (AFETR)
Your satellite tracking list
FENGYUN 1C DEB
Track 1 satellite(s)




NASA's NSSDC Master Catalog

Two Line Element Set (TLE):
1 48692U 21044BG  25199.84962647  .00002715  00000-0  20102-3 0  9995
2 48692  53.0550  46.4914 0001244  88.6459 271.4673 15.06407507229938
Source of the keplerian elements: AFSPC